Погода в Милькове

Россия / Камчатский край     54°41′43″N   158°37′12″E
темп.,
°C
ветер,
м/с
пор.,
м/с
влажн.,
%
обл.,
%
осадки,
мм/ч
давл.,
гПа
погр.,
м
28 ноября, вс
вс2800:00−14ссз119890 0.4 100612
03:00−15ссз009988 0.1 100710
06:00−18вюв009991 0.1 100810
09:00−19зюз01100100 0.1 100910
12:00−16ю119393 0.1 1008152
15:00−14юв119184 0.0 1007199
18:00−21з1110036 0.0 10099
21:00−23зюз119891 0.0 101010
29 ноября, пн
пн2900:00−24зюз119748 0.0 101010
03:00−24зюз119623 0.0 10119
06:00−24сз119518 0.0 10119
09:00−24зюз1196100 0.0 10129
12:00−15ююз1183100 0.0 101163
15:00−11вюв0087100 0.0 101051
18:00−13ссв1195100 0.0 101111
21:00−13св1196100 0.0 101210
30 ноября, вт
вт3000:00−13св0096100 0.0 101112
03:00−13св1196100 0.0 101039
06:00−15с0097100 0.0 101010
09:00−15з0097100 0.0 100910
12:00−12ю1291100 0.0 1008113
15:00−10ююз13905 0.0 1008160
18:00−15зюз229641 0.0 101026
21:00−11зюз35770 0.0 101359
1 декабря, ср
ср100:00−15юз34904 0.0 101649
03:00−11зюз310753 0.0 1017326
06:00−15ююз34885 0.0 101950
09:00−16юз359345 0.0 102162
12:00−9юз378849 0.0 1021173
15:00−5ю3683100 0.0 1021163
18:00−10зюз0190100 0.0 102213
21:00−11ссв2396100 0.0 102255
2 декабря, чт
чт200:00−10св1296100 0.8 1021110
03:00−9ссв2496100 0.7 1017171
06:00−9с1396100 1.3 1014154
09:00−9с2596100 0.4 1009226
12:00−8ссв2494100 3.4 1004263
15:00−8с1394100 2.1 997234
18:00−8сз1197100 3.5 99062
21:00−9ююз3794100 1.8 988226